Location: Beekmeers
(50.8953°N, 3.6968°E)
Time: 08:50:23
(UTC+00:00)

DMSP 5D-2 F13 DEB - Visible Passes

Search period start: 07 October 2024 00:00
Search period end: 17 October 2024 00:00
Orbit: 799 x 862 km, 98.9° (Epoch: 04 October)

Date Brightness Start Highest point End Pass type
(mag) Time Alt. Az. Time Alt. Az. Time Alt. Az.
07 Oct ? 04:29:25 10° NNE 04:34:43 53° E 04:40:05 10° S visible
08 Oct ? 04:11:45 10° NNE 04:16:50 39° E 04:21:56 10° SSE visible
09 Oct ? 03:54:09 10° NE 03:58:51 29° E 04:03:33 10° SSE visible
10 Oct ? 03:36:40 10° NE 03:40:46 21° E 03:44:52 10° SE visible
10 Oct ? 05:16:07 10° NNE 05:21:32 71° WNW 05:27:00 10° SSW visible
11 Oct ? 03:19:26 10° NE 03:22:36 15° E 03:25:46 10° ESE visible
11 Oct ? 04:58:09 10° NNE 05:03:38 86° ESE 05:09:09 10° SSW visible
12 Oct ? 03:03:05 10° ENE 03:04:20 11° E 03:05:36 10° E visible
12 Oct ? 04:40:13 10° NNE 04:45:39 64° ESE 04:51:07 10° S visible
13 Oct ? 04:22:17 10° NNE 04:27:34 47° E 04:32:51 10° S visible
13 Oct ? 17:36:22 10° W 17:37:33 11° W 17:38:43 10° WNW visible
14 Oct ? 04:04:26 10° NNE 04:09:24 34° E 04:14:23 10° SSE visible
15 Oct ? 03:46:40 10° NE 03:51:09 25° E 03:55:38 10° SSE visible
15 Oct ? 05:26:23 10° N 05:31:46 61° WNW 05:37:11 10° SSW visible
16 Oct ? 03:29:03 10° NE 03:32:48 18° E 03:36:34 10° SE visible
16 Oct ? 05:08:10 10° NNE 05:13:41 82° WNW 05:19:13 10° SSW visible
